| time (UTC) | temp F | wind direction | speed MPH | gust MPH | rain 1hr in | rain 24hr in | rain mn in | humidity % | barometer mb |
| 20260504173607 | 71 | 310 | 5.0 | 7.0 | 0.00 | 0.00 | 0.00 | 61 | 1012.0 |
| 20260504172607 | 73 | 203 | 4.0 | 8.0 | 0.00 | 0.00 | 0.00 | 49 | 1011.0 |
| 20260504171607 | 73 | 203 | 4.0 | 8.0 | 0.00 | 0.00 | 0.00 | 49 | 1011.0 |
| 20260504170607 | 73 | 203 | 4.0 | 8.0 | 0.00 | 0.00 | 0.00 | 49 | 1011.0 |
| 20260504150607 | 76 | 268 | 8.0 | 12.0 | 0.00 | 0.00 | 0.00 | 45 | 1012.0 |
| 20260504140607 | 77 | 277 | 9.0 | 14.0 | 0.00 | 0.00 | 0.00 | 47 | 1011.0 |
| 20260504130607 | 77 | 255 | 12.0 | 17.0 | 0.00 | 0.00 | 0.00 | 44 | 1011.0 |
| 20260504110607 | 75 | 252 | 10.0 | 12.0 | 0.00 | 0.00 | 0.00 | 44 | 1012.0 |
| 20260504100608 | 74 | 261 | 11.0 | 12.0 | 0.00 | 0.00 | 0.00 | 46 | 1012.0 |
| 20260504081608 | 70 | 273 | 8.0 | 12.0 | 0.00 | 0.00 | 0.00 | 48 | 1012.0 |
| 20260504080608 | 70 | 273 | 8.0 | 12.0 | 0.00 | 0.00 | 0.00 | 48 | 1012.0 |
| 20260504050607 | 59 | 230 | 6.0 | 11.0 | 0.00 | 0.00 | 0.00 | 68 | 1011.0 |
| 20260504045607 | 59 | 230 | 6.0 | 11.0 | 0.00 | 0.00 | 0.00 | 68 | 1011.0 |
| 20260504044607 | 59 | 230 | 6.0 | 11.0 | 0.00 | 0.00 | 0.00 | 69 | 1012.0 |
| 20260504043607 | 59 | 230 | 6.0 | 11.0 | 0.00 | 0.00 | 0.00 | 69 | 1012.0 |
| 20260504042607 | 57 | 234 | 6.0 | 10.0 | 0.00 | 0.00 | 0.00 | 63 | 1011.0 |
| 20260504041607 | 56 | 234 | 6.0 | 10.0 | 0.00 | 0.00 | 0.00 | 64 | 1011.0 |
| 20260504040607 | 56 | 234 | 6.0 | 10.0 | 0.00 | 0.00 | 0.00 | 64 | 1011.0 |
| 20260504035607 | 56 | 234 | 6.0 | 10.0 | 0.00 | 0.00 | 0.00 | 70 | 1011.0 |
| 20260504034607 | 56 | 234 | 6.0 | 10.0 | 0.00 | 0.00 | 0.00 | 70 | 1011.0 |
| 20260504033607 | 56 | 234 | 6.0 | 10.0 | 0.00 | 0.00 | 0.00 | 70 | 1011.0 |
| 20260504032607 | 56 | 198 | 7.0 | 9.0 | 0.00 | 0.00 | 0.00 | 62 | 1011.0 |
| 20260504031607 | 57 | 198 | 7.0 | 9.0 | 0.00 | 0.00 | 0.00 | 61 | 1011.0 |
| 20260504030607 | 57 | 198 | 7.0 | 9.0 | 0.00 | 0.00 | 0.00 | 61 | 1011.0 |
| 20260504025607 | 55 | 198 | 7.0 | 9.0 | 0.00 | 0.00 | 0.00 | 65 | 1011.0 |
| 20260504024607 | 56 | 198 | 7.0 | 9.0 | 0.00 | 0.00 | 0.00 | 64 | 1011.0 |
| 20260504023607 | 56 | 198 | 7.0 | 9.0 | 0.00 | 0.00 | 0.00 | 64 | 1011.0 |
| 20260504022607 | 57 | 156 | 5.0 | 5.0 | 0.00 | 0.00 | 0.00 | 58 | 1011.0 |
| 20260504021607 | 57 | 156 | 5.0 | 5.0 | 0.00 | 0.00 | 0.00 | 58 | 1011.0 |
| 20260504020607 | 56 | 156 | 5.0 | 5.0 | 0.00 | 0.00 | 0.00 | 62 | 1011.0 |
| 20260504015607 | 56 | 156 | 5.0 | 5.0 | 0.00 | 0.00 | 0.00 | 62 | 1011.0 |
| 20260504014607 | 57 | 156 | 5.0 | 5.0 | 0.00 | 0.00 | 0.00 | 60 | 1011.0 |
| 20260504013607 | 57 | 156 | 5.0 | 5.0 | 0.00 | 0.00 | 0.00 | 60 | 1011.0 |
| 20260504012607 | 58 | 240 | 4.0 | 3.0 | 0.00 | 0.00 | 0.00 | 54 | 1011.0 |
| 20260504011607 | 56 | 240 | 4.0 | 3.0 | 0.00 | 0.00 | 0.00 | 61 | 1012.0 |
| 20260504010607 | 56 | 240 | 4.0 | 3.0 | 0.00 | 0.00 | 0.00 | 61 | 1012.0 |
| 20260504005607 | 56 | 199 | 7.0 | 7.0 | 0.00 | 0.00 | 0.00 | 61 | 1012.0 |
| 20260504004607 | 56 | 199 | 7.0 | 7.0 | 0.00 | 0.00 | 0.00 | 60 | 1012.0 |
| 20260504003607 | 56 | 199 | 7.0 | 7.0 | 0.00 | 0.00 | 0.00 | 60 | 1012.0 |
| 20260504002607 | 58 | 217 | 7.0 | 10.0 | 0.00 | 0.00 | 0.00 | 51 | 1012.0 |
| 20260504001607 | 58 | 217 | 7.0 | 10.0 | 0.00 | 0.00 | 0.00 | 51 | 1012.0 |
| 20260504000607 | 58 | 217 | 7.0 | 10.0 | 0.00 | 0.00 | 0.00 | 51 | 1012.0 |
| 20260503235607 | 57 | 217 | 7.0 | 10.0 | 0.00 | 0.00 | 0.00 | 58 | 1012.0 |
| 20260503234607 | 57 | 217 | 7.0 | 10.0 | 0.00 | 0.00 | 0.00 | 57 | 1012.0 |
| 20260503233607 | 57 | 217 | 7.0 | 10.0 | 0.00 | 0.00 | 0.00 | 57 | 1012.0 |
| 20260503232607 | 60 | 224 | 8.0 | 15.0 | 0.00 | 0.00 | 0.00 | 48 | 1012.0 |
| 20260503231607 | 60 | 224 | 8.0 | 15.0 | 0.00 | 0.00 | 0.00 | 48 | 1012.0 |
| 20260503230607 | 58 | 224 | 8.0 | 15.0 | 0.00 | 0.00 | 0.00 | 57 | 1012.0 |
| 20260503225607 | 58 | 224 | 8.0 | 15.0 | 0.00 | 0.00 | 0.00 | 57 | 1012.0 |
| 20260503224607 | 59 | 224 | 8.0 | 15.0 | 0.00 | 0.00 | 0.00 | 57 | 1012.0 |
| 20260503223607 | 59 | 224 | 8.0 | 15.0 | 0.00 | 0.00 | 0.00 | 57 | 1012.0 |
| 20260503222607 | 61 | 197 | 8.0 | 19.0 | 0.00 | 0.00 | 0.00 | 46 | 1012.0 |
| 20260503221607 | 61 | 197 | 8.0 | 19.0 | 0.00 | 0.00 | 0.00 | 55 | 1012.0 |
| 20260503220607 | 61 | 197 | 8.0 | 19.0 | 0.00 | 0.00 | 0.00 | 55 | 1012.0 |
| 20260503215607 | 61 | 197 | 8.0 | 19.0 | 0.00 | 0.00 | 0.00 | 55 | 1012.0 |
| 20260503214607 | 61 | 197 | 8.0 | 19.0 | 0.00 | 0.00 | 0.00 | 54 | 1012.0 |
| 20260503213607 | 61 | 197 | 8.0 | 19.0 | 0.00 | 0.00 | 0.00 | 54 | 1012.0 |
| 20260503212607 | 64 | 191 | 9.0 | 24.0 | 0.00 | 0.00 | 0.00 | 42 | 1012.0 |
| 20260503211607 | 64 | 191 | 9.0 | 24.0 | 0.00 | 0.00 | 0.00 | 41 | 1012.0 |
| 20260503210607 | 63 | 191 | 9.0 | 24.0 | 0.00 | 0.00 | 0.00 | 51 | 1012.0 |
| 20260503205607 | 63 | 191 | 9.0 | 24.0 | 0.00 | 0.00 | 0.00 | 51 | 1012.0 |
| 20260503204607 | 64 | 191 | 9.0 | 24.0 | 0.00 | 0.00 | 0.00 | 51 | 1012.0 |
| 20260503203607 | 64 | 191 | 9.0 | 24.0 | 0.00 | 0.00 | 0.00 | 51 | 1012.0 |
| 20260503202607 | 67 | 191 | 10.0 | 21.0 | 0.00 | 0.00 | 0.00 | 39 | 1012.0 |
| 20260503201607 | 67 | 191 | 10.0 | 21.0 | 0.00 | 0.00 | 0.00 | 38 | 1012.0 |
| 20260503200607 | 67 | 191 | 10.0 | 21.0 | 0.00 | 0.00 | 0.00 | 49 | 1012.0 |
| 20260503195607 | 67 | 191 | 10.0 | 21.0 | 0.00 | 0.00 | 0.00 | 49 | 1012.0 |
| 20260503194607 | 67 | 191 | 10.0 | 21.0 | 0.00 | 0.00 | 0.00 | 48 | 1012.0 |
| 20260503193607 | 68 | 191 | 10.0 | 21.0 | 0.00 | 0.00 | 0.00 | 46 | 1012.0 |
| 20260503192607 | 69 | 179 | 11.0 | 21.0 | 0.00 | 0.00 | 0.00 | 33 | 1012.0 |
| 20260503191607 | 70 | 179 | 11.0 | 21.0 | 0.00 | 0.00 | 0.00 | 35 | 1012.0 |
| 20260503190607 | 70 | 179 | 11.0 | 21.0 | 0.00 | 0.00 | 0.00 | 44 | 1012.0 |
| 20260503185607 | 70 | 179 | 11.0 | 21.0 | 0.00 | 0.00 | 0.00 | 44 | 1012.0 |
| 20260503184607 | 70 | 179 | 11.0 | 21.0 | 0.00 | 0.00 | 0.00 | 44 | 1012.0 |
| 20260503183607 | 70 | 182 | 10.0 | 17.0 | 0.00 | 0.00 | 0.00 | 43 | 1012.0 |
| 20260503182607 | 74 | 172 | 11.0 | 18.0 | 0.00 | 0.00 | 0.00 | 31 | 1012.0 |
| 20260503181607 | 74 | 172 | 11.0 | 18.0 | 0.00 | 0.00 | 0.00 | 31 | 1012.0 |
| 20260503180607 | 74 | 172 | 11.0 | 18.0 | 0.00 | 0.00 | 0.00 | 44 | 1011.0 |
| 20260503175607 | 74 | 172 | 11.0 | 18.0 | 0.00 | 0.00 | 0.00 | 44 | 1011.0 |
| 20260503174607 | 75 | 172 | 11.0 | 18.0 | 0.00 | 0.00 | 0.00 | 43 | 1011.0 |